CW5346 Weather Reports


Display with metric or nautical units.
time (UTC)temp
F
wind
direction
speed
MPH
gust
MPH
rain 1hr
in
rain 24hr
in
rain mn
in
humidity
%
barometer
mb
20260906224603 70 5 0.0 1.0 0.00 0.00 0.00 77 1015.8
20260906223604 71 5 0.0 0.0 0.00 0.00 0.00 75 1015.7
20260906222603 71 5 0.0 3.0 0.00 0.00 0.00 75 1015.6
20260906221624 72 9 0.0 1.0 0.00 0.00 0.00 74 1015.5
20260906220604 72 360 0.0 2.0 0.00 0.00 0.00 75 1015.5
20260906215603 73 360 0.0 0.0 0.00 0.00 0.00 73 1015.2
20260906213604 73 360 0.0 2.0 0.00 0.00 0.00 67 1015.1
20260906212603 73 344 0.0 2.0 0.00 0.00 0.00 69 1015.0
20260906211603 73 341 0.0 3.0 0.00 0.00 0.00 65 1015.0
20260906210603 73 334 0.0 8.0 0.00 0.00 0.00 66 1014.9
20260906205624 72 51 1.0 7.0 0.00 0.00 0.00 73 1014.9
20260906204604 72 5 0.0 0.0 0.00 0.00 0.00 72 1014.8
20260906203603 72 5 0.0 0.0 0.00 0.00 0.00 72 1014.9
20260906202603 73 5 0.0 3.0 0.00 0.00 0.00 69 1014.9
20260906201604 73 5 0.0 6.0 0.00 0.00 0.00 67 1014.8
20260906200603 73 13 0.0 0.0 0.00 0.00 0.00 70 1014.7
20260906195602 73 13 0.0 3.0 0.00 0.00 0.00 69 1014.7
20260906194603 73 14 0.0 3.0 0.00 0.00 0.00 68 1014.7
20260906193603 74 14 1.0 4.0 0.00 0.00 0.00 65 1014.6
20260906192603 74 5 0.0 3.0 0.00 0.00 0.00 66 1014.6
20260906191624 73 5 0.0 4.0 0.00 0.00 0.00 67 1014.6
20260906190602 74 5 0.0 3.0 0.00 0.00 0.00 66 1014.7
20260906185624 74 5 1.0 5.0 0.00 0.00 0.00 66 1014.7
20260906184602 74 10 0.0 7.0 0.00 0.00 0.00 68 1014.8
20260906183603 73 16 0.0 4.0 0.00 0.00 0.00 73 1014.9
20260906182603 73 32 0.0 8.0 0.00 0.00 0.00 70 1014.8
20260906181603 73 15 1.0 3.0 0.00 0.00 0.00 72 1014.8
20260906180624 72 18 0.0 1.0 0.00 0.00 0.00 73 1014.9
20260906175624 72 18 0.0 0.0 0.00 0.00 0.00 74 1015.0
20260906174603 72 18 0.0 4.0 0.00 0.00 0.00 73 1015.0
20260906173602 73 19 0.0 4.0 0.00 0.00 0.00 71 1015.0
20260906172625 74 32 1.0 6.0 0.00 0.00 0.00 70 1015.2
20260906171603 74 84 0.0 4.0 0.00 0.00 0.00 70 1015.0
20260906170603 74 53 2.0 5.0 0.00 0.00 0.00 70 1015.2
20260906165602 73 338 1.0 6.0 0.00 0.00 0.00 71 1015.2
20260906164603 73 354 0.0 5.0 0.00 0.00 0.00 71 1015.2
20260906163603 73 5 0.0 9.0 0.00 0.00 0.00 73 1015.1
20260906162603 73 337 3.0 12.0 0.00 0.00 0.00 70 1015.2
20260906161603 73 346 1.0 8.0 0.00 0.00 0.00 73 1015.4
20260906160603 74 3 1.0 8.0 0.00 0.00 0.00 73 1015.3
20260906155610 73 25 1.0 5.0 0.00 0.00 0.00 76 1015.4
20260906154603 72 13 0.0 3.0 0.00 0.00 0.00 80 1015.4
20260906153603 71 356 1.0 5.0 0.00 0.00 0.00 79 1015.5
20260906152603 71 6 2.0 5.0 0.00 0.00 0.00 79 1015.4
20260906151603 70 343 0.0 3.0 0.00 0.00 0.00 81 1015.5
20260906150602 69 341 0.0 6.0 0.00 0.00 0.00 81 1015.5
20260906145603 70 338 0.0 6.0 0.00 0.00 0.00 81 1015.5
20260906144602 70 341 0.0 5.0 0.00 0.00 0.00 80 1015.4
20260906143603 70 323 0.0 0.0 0.00 0.00 0.00 81 1015.4
20260906142603 70 323 0.0 8.0 0.00 0.00 0.00 79 1015.3
20260906141603 70 4 1.0 4.0 0.00 0.00 0.00 79 1015.2
20260906140603 69 5 0.0 0.0 0.00 0.00 0.00 84 1015.1
20260906135603 68 5 0.0 5.0 0.00 0.00 0.00 86 1015.3
20260906134624 67 5 0.0 3.0 0.00 0.00 0.00 87 1015.3
20260906133602 67 10 0.0 3.0 0.00 0.00 0.00 88 1015.2
20260906131603 65 5 0.0 1.0 0.00 0.00 0.00 93 1015.2
20260906130603 65 355 0.0 0.0 0.00 0.00 0.00 96 1015.1
20260906125603 64 355 0.0 0.0 0.00 0.00 0.00 98 1015.1
20260906124603 63 355 0.0 0.0 0.00 0.00 0.00 98 1015.1
20260906123603 62 355 0.0 1.0 0.00 0.00 0.00 98 1015.1
20260906122603 61 354 0.0 1.0 0.00 0.00 0.00 98 1015.0
20260906121624 61 355 0.0 0.0 0.00 0.00 0.00 98 1015.1
20260906120602 60 355 0.0 0.0 0.00 0.00 0.00 98 1015.0
20260906115603 60 355 0.0 0.0 0.00 0.00 0.00 97 1014.9
20260906114603 59 355 0.0 0.0 0.00 0.00 0.00 97 1014.8
20260906113624 59 355 0.0 0.0 0.00 0.00 0.00 97 1014.6
20260906112603 59 355 0.0 0.0 0.00 0.00 0.00 97 1014.6
20260906111603 58 355 0.0 0.0 0.00 0.00 0.00 97 1014.4
20260906110603 58 355 0.0 0.0 0.00 0.00 0.00 97 1014.5
20260906105624 58 355 0.0 0.0 0.00 0.00 0.00 96 1014.3
20260906104603 58 355 0.0 0.0 0.00 0.00 0.00 96 1014.1
20260906103602 58 355 0.0 0.0 0.00 0.00 0.00 97 1014.0
20260906102603 58 355 0.0 0.0 0.00 0.00 0.00 96 1013.9
20260906101603 58 355 0.0 0.0 0.00 0.00 0.00 97 1013.8
20260906100603 58 355 0.0 0.0 0.00 0.00 0.00 96 1013.7
20260906095603 58 355 0.0 0.0 0.00 0.00 0.00 96 1013.6
20260906094603 58 355 0.0 0.0 0.00 0.00 0.00 96 1013.6
20260906093603 58 355 0.0 0.0 0.00 0.00 0.00 96 1013.4
20260906092602 59 355 0.0 0.0 0.00 0.00 0.00 96 1013.3
20260906091603 59 355 0.0 0.0 0.00 0.00 0.00 96 1013.2
20260906090603 59 355 0.0 0.0 0.00 0.00 0.00 96 1013.2
20260906085603 59 355 0.0 0.0 0.00 0.00 0.00 96 1013.1
20260906084604 59 355 0.0 0.0 0.00 0.00 0.00 96 1013.1
20260906083605 59 355 0.0 0.0 0.00 0.00 0.00 96 1012.9
20260906082625 59 355 0.0 0.0 0.00 0.00 0.00 96 1012.8
20260906081604 60 355 0.0 0.0 0.00 0.00 0.00 96 1012.8
20260906080605 60 355 0.0 0.0 0.00 0.00 0.00 96 1012.7
20260906075605 60 355 0.0 0.0 0.00 0.00 0.00 96 1012.6
20260906074604 60 355 0.0 0.0 0.00 0.00 0.00 96 1012.6
20260906073604 60 355 0.0 0.0 0.00 0.00 0.00 96 1012.6
20260906072604 60 355 0.0 0.0 0.00 0.00 0.00 96 1012.7
20260906071604 60 355 0.0 0.0 0.00 0.00 0.00 96 1012.6
20260906070605 61 355 0.0 0.0 0.00 0.00 0.00 95 1012.6
20260906065605 61 355 0.0 0.0 0.00 0.00 0.00 95 1012.7
20260906064604 61 355 0.0 0.0 0.00 0.00 0.00 95 1012.8
20260906063604 61 355 0.0 0.0 0.00 0.00 0.00 95 1012.6
20260906062604 61 355 0.0 0.0 0.00 0.00 0.00 95 1012.7
20260906061625 61 355 0.0 0.0 0.00 0.00 0.00 95 1012.8
20260906060604 62 355 0.0 0.0 0.00 0.00 0.00 95 1012.9
20260906055626 62 355 0.0 0.0 0.00 0.00 0.00 95 1013.0
20260906054625 62 355 0.0 0.0 0.00 0.00 0.00 95 1013.0
20260906053604 62 355 0.0 0.0 0.00 0.00 0.00 95 1012.9
20260906052604 62 355 0.0 0.0 0.00 0.00 0.00 95 1013.0
20260906051604 62 355 0.0 0.0 0.00 0.00 0.00 95 1012.9
20260906050605 63 355 0.0 0.0 0.00 0.00 0.00 94 1013.1
20260906045604 63 355 0.0 0.0 0.00 0.00 0.00 94 1013.0
20260906044604 63 355 0.0 0.0 0.00 0.00 0.00 94 1012.9
20260906043626 63 355 0.0 0.0 0.00 0.00 0.00 94 1012.8
20260906042604 63 355 0.0 0.0 0.00 0.00 0.00 94 1012.8
20260906041646 63 355 0.0 0.0 0.00 0.00 0.00 94 1012.9
20260906040604 63 355 0.0 0.0 0.00 0.00 0.00 94 1012.8
20260906035604 63 355 0.0 0.0 0.00 0.00 0.00 94 1012.9
20260906034604 63 355 0.0 0.0 0.00 0.00 0.00 94 1012.8
20260906033604 63 355 0.0 0.0 0.00 0.00 0.00 94 1012.8
20260906032625 64 355 0.0 0.0 0.00 0.00 0.00 94 1012.7
20260906031625 64 355 0.0 0.0 0.00 0.00 0.00 93 1012.5
20260906030625 64 355 0.0 0.0 0.00 0.00 0.00 93 1012.5
20260906025604 64 355 0.0 0.0 0.00 0.00 0.00 93 1012.6
20260906024604 64 355 0.0 0.0 0.00 0.00 0.00 93 1012.5
20260906023604 64 355 0.0 0.0 0.00 0.00 0.00 93 1012.5
20260906022604 64 355 0.0 0.0 0.00 0.00 0.00 93 1012.6
20260906021604 64 355 0.0 0.0 0.00 0.00 0.00 93 1012.6
20260906020604 64 355 0.0 0.0 0.00 0.00 0.00 93 1012.5
20260906015604 65 355 0.0 0.0 0.00 0.00 0.00 93 1012.5
20260906014604 65 355 0.0 0.0 0.00 0.00 0.00 93 1012.5
20260906013604 65 355 0.0 0.0 0.00 0.00 0.00 92 1012.4
20260906012604 65 355 0.0 0.0 0.00 0.00 0.00 92 1012.3
20260906011604 66 355 0.0 0.0 0.00 0.00 0.00 92 1012.2
20260906010604 66 355 0.0 0.0 0.00 0.00 0.00 91 1012.2
20260906005604 66 355 0.0 0.0 0.00 0.00 0.00 91 1011.9
20260906004604 66 355 0.0 0.0 0.00 0.00 0.00 90 1011.8
20260906003604 67 355 0.0 0.0 0.00 0.00 0.00 90 1011.6
20260906002604 67 355 0.0 0.0 0.00 0.00 0.00 90 1011.4
20260906001625 68 355 0.0 0.0 0.00 0.00 0.00 90 1011.5
20260906000625 68 355 0.0 0.0 0.00 0.00 0.00 89 1011.3
20260905235625 69 355 0.0 0.0 0.00 0.00 0.00 89 1011.3
20260905234604 69 355 0.0 0.0 0.00 0.00 0.00 88 1011.0
20260905233603 70 355 0.0 0.0 0.00 0.00 0.00 87 1011.0
20260905232604 70 355 0.0 0.0 0.00 0.00 0.00 86 1011.0
20260905231603 71 355 0.0 0.0 0.00 0.00 0.00 84 1011.0
20260905230604 71 355 0.0 0.0 0.00 0.00 0.00 82 1010.9
20260905225604 72 355 0.0 0.0 0.00 0.00 0.00 81 1010.8